Latest Coastal Weather Observations for Hillarys Point Boat Harbour

IDW60701

Issued at 4:15 am WST Thursday 24 April 2014 (issued every 10 minutes, with the page automatically refreshed every 10 minutes)

About coastal observations | Map of coastal stations | Coastal observations for WA | Marine services | Other Formats
Station Details ID: 009265 Name: HILLARYS BOAT HARBOUR NTC AWS Lat: -31.83 Lon: 115.74 Height: 0.0 m
Data from the previous 72 hours. | See also: Recent months for locations in Western Australia
Date/Time
WST
Temp

°C
Wind Pressure Rain
since 9am
mm
Weather Cloud Vis
km
Sea
Height
m
Swell
Dir
 
Speed
knots
Gust
knots
hPa Trend Height
m
Period
s
Dir
24/04:00am - E 8 14 1009.9 - - - - - - - - -
24/03:30am - E 6 11 1010.2 - - - - - - - - -
24/03:00am - E 7 12 1010.5 - - - - - - - - -
24/02:30am - E 7 11 1010.9 - - - - - - - - -
24/02:00am - E 7 12 1011.3 - - - - - - - - -
24/01:30am - E 7 11 1011.8 - - - - - - - - -
24/01:00am - E 6 11 1011.8 - - - - - - - - -
24/12:30am - E 5 11 1011.9 - - - - - - - - -
24/12:00am - E 4 7 1012.1 - - - - - - - - -
 
Date/Time
WST
Temp

°C
Wind Pressure Rain
since 9am
mm
Weather Cloud Vis
km
Sea
Height
m
Swell
Dir
 
Speed
knots
Gust
knots
hPa Trend Height
m
Period
s
Dir
23/11:30pm - E 4 9 1012.3 - - - - - - - - -
23/11:00pm - E 3 7 1012.6 - - - - - - - - -
23/10:30pm - E 3 7 1013.0 - - - - - - - - -
23/10:00pm - E 2 5 1013.2 - - - - - - - - -
23/09:30pm - ESE 1 3 1013.4 - - - - - - - - -
23/09:00pm - SE 1 3 1013.6 - - - - - - - - -
23/08:30pm - ESE 1 2 1013.7 - - - - - - - - -
23/08:00pm - SSE 3 5 1013.9 - - - - - - - - -
23/07:30pm - S 4 8 1013.7 - - - - - - - - -
23/07:00pm - S 3 10 1013.6 - - - - - - - - -
23/06:30pm - S 3 7 1013.5 - - - - - - - - -
23/06:00pm - S 3 8 1013.2 - - - - - - - - -
23/05:30pm - S 3 7 1013.1 - - - - - - - - -
23/05:00pm - SSW 3 8 1013.2 - - - - - - - - -
23/04:30pm - SSW 4 9 1013.2 - - - - - - - - -
23/04:00pm - SSW 5 12 1013.3 - - - - - - - - -
23/03:30pm - SSW 6 13 1013.3 - - - - - - - - -
23/03:00pm - SSW 6 11 1013.5 - - - - - - - - -
23/02:30pm - SSW 8 15 1013.6 - - - - - - - - -
23/02:00pm - SSW 7 13 1013.7 - - - - - - - - -
23/01:30pm - SSW 5 11 1014.0 - - - - - - - - -
23/01:00pm - SSW 6 11 1014.6 - - - - - - - - -
23/12:30pm - SSW 5 11 1015.2 - - - - - - - - -
23/12:00pm - S 4 8 1015.6 - - - - - - - - -
23/11:30am - S 5 10 1016.0 - - - - - - - - -
23/11:00am - SSE 4 9 1016.4 - - - - - - - - -
23/10:30am - SSE 4 10 1016.8 - - - - - - - - -
23/10:00am - SE 2 7 1017.2 - - - - - - - - -
23/09:30am - E 2 6 1017.7 - - - - - - - - -
23/09:00am - E 3 8 1018.0 - - - - - - - - -
23/08:30am - E 2 6 1017.9 - - - - - - - - -
23/08:00am - E 4 8 1017.6 - - - - - - - - -
23/07:30am - E 3 7 1017.2 - - - - - - - - -
23/07:00am - E 4 7 1017.0 - - - - - - - - -
23/06:30am - E 4 9 1017.0 - - - - - - - - -
23/06:00am - E 2 6 1017.0 - - - - - - - - -
23/05:30am - E 2 4 1017.2 - - - - - - - - -
23/05:00am - E 2 5 1017.2 - - - - - - - - -
23/04:30am - E 2 4 1017.0 - - - - - - - - -
23/04:00am - E 1 6 1016.8 - - - - - - - - -
23/03:30am - SE 2 6 1016.9 - - - - - - - - -
23/03:00am - SE 2 5 1017.2 - - - - - - - - -
23/02:30am - SSE 4 9 1017.4 - - - - - - - - -
23/02:00am - SSE 6 11 1017.3 - - - - - - - - -
23/01:30am - SSE 6 10 1017.3 - - - - - - - - -
23/01:00am - S 5 9 1017.1 - - - - - - - - -
23/12:30am - SSE 6 10 1017.1 - - - - - - - - -
23/12:00am - SSE 5 9 1017.3 - - - - - - - - -
 
Date/Time
WST
Temp

°C
Wind Pressure Rain
since 9am
mm
Weather Cloud Vis
km
Sea
Height
m
Swell
Dir
 
Speed
knots
Gust
knots
hPa Trend Height
m
Period
s
Dir
22/11:30pm - SSE 6 11 1017.6 - - - - - - - - -
22/11:00pm - SSE 6 10 1017.7 - - - - - - - - -
22/10:30pm - SSE 5 9 1018.2 - - - - - - - - -
22/10:00pm - SSE 5 10 1018.2 - - - - - - - - -
22/09:30pm - SSE 6 9 1018.2 - - - - - - - - -
22/09:00pm - SSE 4 8 1018.3 - - - - - - - - -
22/08:30pm - SSE 5 10 1017.9 - - - - - - - - -
22/08:00pm - S 5 13 1018.1 - - - - - - - - -
22/07:30pm - S 4 10 1018.2 - - - - - - - - -
22/07:00pm - S 4 10 1017.8 - - - - - - - - -
22/06:30pm - S 4 10 1017.0 - - - - - - - - -
22/06:00pm - SSW 4 10 1016.7 - - - - - - - - -
22/05:30pm - SSW 5 12 1016.8 - - - - - - - - -
22/05:00pm - SSW 5 10 1016.9 - - - - - - - - -
22/04:30pm - SSW 6 12 1017.1 - - - - - - - - -
22/04:00pm - SSW 7 12 1017.2 - - - - - - - - -
22/03:30pm - SSW 6 13 1017.2 - - - - - - - - -
22/03:00pm - SSW 6 12 1017.3 - - - - - - - - -
22/02:30pm - SSW 7 12 1017.5 - - - - - - - - -
22/02:00pm - SW 7 11 1017.6 - - - - - - - - -
22/01:30pm - SSW 7 12 1018.0 - - - - - - - - -
22/01:00pm - SSW 6 10 1018.4 - - - - - - - - -
22/12:30pm - SW 6 11 1019.0 - - - - - - - - -
22/12:00pm - SW 5 9 1019.4 - - - - - - - - -
22/11:30am - SSW 4 6 1019.7 - - - - - - - - -
22/11:00am - SW 4 7 1020.1 - - - - - - - - -
22/10:30am - SW 4 6 1020.5 - - - - - - - - -
22/10:00am - SW 3 6 1020.6 - - - - - - - - -
22/09:30am - S 1 4 1020.8 - - - - - - - - -
22/09:00am - W 2 4 1020.7 - - - - - - - - -
22/08:30am - ENE 4 8 1020.6 - - - - - - - - -
22/08:00am - E 2 4 1020.3 - - - - - - - - -
22/07:30am - E 1 2 1020.2 - - - - - - - - -
22/07:00am - ESE 1 2 1020.0 - - - - - - - - -
22/06:30am - CALM 0 1 1019.8 - - - - - - - - -
22/06:00am - SE 1 3 1019.6 - - - - - - - - -
22/05:30am - SE 1 4 1019.5 - - - - - - - - -
22/05:00am - SE 1 4 1019.4 - - - - - - - - -
22/04:30am - E 1 4 1019.5 - - - - - - - - -
22/04:00am - SE 1 4 1019.3 - - - - - - - - -
22/03:30am - CALM 0 2 1019.2 - - - - - - - - -
22/03:00am - ESE 1 3 1019.2 - - - - - - - - -
22/02:30am - SSE 2 5 1019.2 - - - - - - - - -
22/02:00am - ESE 1 3 1019.3 - - - - - - - - -
22/01:30am - E 1 3 1019.5 - - - - - - - - -
22/01:00am - SSE 3 5 1019.4 - - - - - - - - -
22/12:30am - SSE 1 4 1019.4 - - - - - - - - -
22/12:00am - SE 1 4 1019.6 - - - - - - - - -
 
Date/Time
WST
Temp

°C
Wind Pressure Rain
since 9am
mm
Weather Cloud Vis
km
Sea
Height
m
Swell
Dir
 
Speed
knots
Gust
knots
hPa Trend Height
m
Period
s
Dir
21/11:30pm - SE 1 4 1019.9 - - - - - - - - -
21/11:00pm - SSE 3 7 1020.0 - - - - - - - - -
21/10:30pm - SSE 5 10 1020.1 - - - - - - - - -
21/10:00pm - SSE 4 9 1020.2 - - - - - - - - -
21/09:30pm - SSE 5 9 1020.3 - - - - - - - - -
21/09:00pm - SSE 4 8 1020.3 - - - - - - - - -
21/08:30pm - SSE 4 9 1020.3 - - - - - - - - -
21/08:00pm - S 5 12 1020.1 - - - - - - - - -
21/07:30pm - S 3 12 1019.8 - - - - - - - - -
21/07:00pm - SSW 5 12 1019.5 - - - - - - - - -
21/06:30pm - SSW 5 13 1018.9 - - - - - - - - -
21/06:00pm - SSW 6 14 1018.6 - - - - - - - - -
21/05:30pm - SSW 7 14 1018.4 - - - - - - - - -
21/05:00pm - SSW 7 14 1018.2 - - - - - - - - -
21/04:30pm - SSW 8 13 1018.2 - - - - - - - - -
21/04:00pm - SSW 7 10 1018.2 - - - - - - - - -
21/03:30pm - SSW 7 13 1018.3 - - - - - - - - -
21/03:00pm - SSW 7 12 1018.2 - - - - - - - - -
21/02:30pm - SSW 7 11 1018.2 - - - - - - - - -
21/02:00pm - SSW 7 12 1018.3 - - - - - - - - -
21/01:30pm - SSW 7 12 1018.2 - - - - - - - - -
21/01:00pm - SSW 7 12 1018.4 - - - - - - - - -
21/12:30pm - SSW 6 10 1018.7 - - - - - - - - -
21/12:00pm - SSW 6 11 1018.9 - - - - - - - - -
21/11:30am - SSW 4 8 1019.0 - - - - - - - - -
21/11:00am - S 3 8 1019.4 - - - - - - - - -
21/10:30am - SSE 2 7 1019.4 - - - - - - - - -
21/10:00am - SE 4 8 1019.4 - - - - - - - - -
21/09:30am - SE 2 10 1019.4 - - - - - - - - -
21/09:00am - E 3 9 1019.3 - - - - - - - - -
21/08:30am - E 3 9 1019.0 - - - - - - - - -
21/08:00am - E 3 9 1018.9 - - - - - - - - -
21/07:30am - ESE 2 8 1018.4 - - - - - - - - -
21/07:00am - SE 2 7 1018.2 - - - - - - - - -
21/06:30am - E 2 5 1018.0 - - - - - - - - -
21/06:00am - ESE 2 5 1017.8 - - - - - - - - -
21/05:30am - SE 2 7 1017.8 - - - - - - - - -
21/05:00am - SSE 3 7 1017.6 - - - - - - - - -
21/04:30am 15.1 SSE 2 6 1016.9 - - - - - - - - -

Other Formats:

Comma delimited format used in spreadsheet applications
http://www.bom.gov.au/fwo/IDW60701/IDW60701.95605.axf

JavaScript Object Notation format (JSON) in row-major order
http://www.bom.gov.au/fwo/IDW60701/IDW60701.95605.json